Location: Baia Mare
(47.6567°N, 23.5850°E)
Time: 16:12:43
(UTC+03:00)

ISS - Pass Details

Date: 14 May 2018
Orbit: 402 x 408 km, 51.6° (Epoch: 22 October)

Event Time Altitude Azimuth Distance (km) Brightness Sun altitude
Exits shadow 01:44:10 12° 77° (ENE) 1,369 -1.0 -23.6°
Drops below altitude 10° 01:44:24 10° 76° (ENE) 1,458 -0.8 -23.6°
Enters shadow 02:45:21 -60° 249° (WSW) 11,477 3.5 -21.2°
Maximum altitude 03:17:55 53° 345° (NNW) 505 -3.2 -18.9°
